sat.trackr.live / text

‹ back to catalog

STARLINK-5934

NORAD 56017 · 2023-042AH

PAYLOAD ACTIVE UNKNOWN

§ Identity

Operator
Country
US
Launch date
2023-03-24
Launch site
AFETR
Launch vehicle
Mass (kg)
RCS (m²)

Purposes: comms

External: N2YO · Heavens-Above · Gunter

§ Orbital elements

Epoch: 2026-05-24T19:06:00.150912Z

Period
94.27 min
Inclination
43.0065°
Eccentricity
0.0001802
Mean motion
15.27577201 rev/d
Perigee alt
481.8 km
Apogee alt
484.3 km
Semi-major
6,861.2 km
B*
2.1345e-5
RAAN
335.5316°
Arg perigee
269.2615°
Mean anomaly
90.8031°
Rev number
17,467

§ Raw data

STARLINK-59341 56017U 23042AH  26144.79583508  .00000325  00000+0  21345-4 0  99902 56017  43.0065 335.5316 0001802 269.2615  90.8031 15.27577201174670

JSON: /api/v1/satellites/56017 · /tle

For live sub-satellite position, see the globe view (requires WebGL).

§ Visibility from observer

Set your observer location to see the next 7 days of passes ≥ 10°. The values pass through the URL so the page stays shareable.

No JS? Fill the form by hand. The geolocation button needs JavaScript.